Location: Newark
(35.2672°N, 80.7344°W)
Time: 13:46:13
(UTC+00:00)

SR - Visible Passes

Search period start: 24 January 2020 00:00
Search period end: 03 February 2020 00:00
Orbit: 574 x 882 km, 66.7° (Epoch: 23 January)

Date Brightness Start Highest point End Pass type
(mag) Time Alt. Az. Time Alt. Az. Time Alt. Az.
24 Jan ? 11:57:38 10° N 12:01:58 23° NE 12:06:01 10° ESE visible
25 Jan ? 11:09:26 10° NNE 11:11:44 13° NE 11:13:57 10° ENE visible
27 Jan ? 11:10:47 10° N 11:14:57 22° NE 11:18:51 10° E visible
28 Jan ? 10:22:48 10° NNE 10:24:41 12° NE 10:26:32 10° ENE visible
29 Jan ? 11:12:53 10° NNW 11:17:59 39° ENE 11:22:36 10° SE visible
30 Jan ? 10:23:56 10° N 10:27:56 20° NE 10:31:41 10° E visible
31 Jan ? 00:49:38 10° SSE 00:49:43 10° SSE 00:49:43 10° SSE visible
31 Jan ? 09:36:16 10° NNE 09:37:38 11° NE 09:39:00 10° ENE visible
31 Jan ? 11:15:24 10° NNW 11:20:47 76° ENE 11:25:39 10° SSE visible
01 Feb ? 01:40:36 10° SSW 01:42:16 20° SSW 01:42:16 20° SSW visible
01 Feb ? 10:26:19 11° N 10:30:58 36° NE 10:35:32 10° ESE visible
02 Feb ? 00:51:15 10° S 00:55:20 41° SSE 00:55:20 41° SSE visible
02 Feb ? 02:34:27 10° WSW 02:34:51 12° WSW 02:34:51 12° WSW visible
02 Feb ? 09:38:41 15° NNE 09:40:54 19° NE 09:44:30 10° E visible
02 Feb ? 11:18:15 10° NW 11:23:24 53° WSW 11:28:05 10° S visible
